Overview Statistics Trail Chart Weather Telemetry Raw packets
 

This is the latest recevied weather packets stored in our database for station/object K7KAR-2. If no packets are shown the sender has not sent any weather packets the latest 10 day(s).

<< 9 10 11 12 13 14 15 >>
Time Temp. Humidity Pressure Rain* Wind** Luminosity Snow
1788550569 32.78° C 15% 1008.2 hPa 0 mm - 860 W/m² -
1788550266 31.67° C 16% 1008.1 hPa 0 mm - 862 W/m² -
1788549966 32.78° C 16% 1008.3 hPa 0 mm - 864 W/m² -
1788549661 32.78° C 16% 1008.2 hPa 0 mm - 868 W/m² -
1788549358 31.67° C 17% 1008.2 hPa 0 mm - 867 W/m² -
1788549054 31.67° C 16% 1008.1 hPa 0 mm - 871 W/m² -
1788548749 31.67° C 16% 1008.3 hPa 0 mm - 873 W/m² -
1788548446 31.11° C 18% 1008.4 hPa 0 mm - 867 W/m² -
1788548142 30.56° C 18% 1008.3 hPa 0 mm - 867 W/m² -
1788547836 31.11° C 18% 1008.4 hPa 0 mm - 868 W/m² -
1788547531 30.56° C 18% 1008.5 hPa 0 mm - 865 W/m² -
1788547226 30° C 19% 1008.5 hPa 0 mm - 864 W/m² -
1788546921 30° C 19% 1008.5 hPa 0 mm - 863 W/m² -
1788546616 30° C 20% 1008.7 hPa 0 mm - 862 W/m² -
1788546312 29.44° C 20% 1008.5 hPa 0 mm - 859 W/m² -
1788546012 29.44° C 19% 1008.6 hPa 0 mm - 856 W/m² -
1788545707 29.44° C 19% 1008.5 hPa 0 mm - 851 W/m² -
1788545402 28.89° C 20% 1008.6 hPa 0 mm - 845 W/m² -
1788545096 28.89° C 21% 1008.9 hPa 0 mm - 839 W/m² -
1788544796 28.89° C 20% 1008.8 hPa 0 mm - 833 W/m² -
1788544490 28.33° C 21% 1008.8 hPa 0 mm - 826 W/m² -
1788544190 28.33° C 21% 1008.7 hPa 0 mm - 823 W/m² -
1788543885 27.78° C 22% 1008.7 hPa 0 mm - 814 W/m² -
1788543581 27.22° C 22% 1008.7 hPa 0 mm - 808 W/m² -
1788543276 27.22° C 22% 1008.7 hPa 0 mm - 799 W/m² -

* Rain latest hour (hover to see other rain measurements)
** Current wind speed in m/s (hover to see current wind gust speed)